Regional Weather Roundup
Issued by NWS

Home | Current Version | Previous Version | Text Only | Print | Product List | Glossary On
Versions: 1 2 3 4 5 6 7 8 9 10 11 12 13 14 15 16 17 18 19 20 21 22 23 24 25 26 27 28 29 30 31 32 33 34 35 36 37 38 39 40 41 42 43 44 45 46 47 48 49 50
000
ASUS46 KSTO 240615
RWRCA

NORTHERN AND CENTRAL CA REGIONAL WEATHER ROUNDUP
NATIONAL WEATHER SERVICE SACRAMENTO CA
1100 PM PDT SAT JUL 23 2016

NOTE: FAIR INDICATES FEW OR NO CLOUDS BELOW 12,000 FEET WITH NO
SIGNIFICANT WEATHER AND/OR OBSTRUCTIONS TO VISIBILITY.

CAZ001-003-240700-
NORTHWEST AREA

CITY           SKY/WX    TMP DP  RH WIND       PRES   REMARKS
CRESCENT CITY  CLEAR     56  53  90 S15       30.01R
UKIAH          CLEAR     73  49  42 CALM      29.88S
$$

CAZ006-505>513-240700-
BAY AREA

CITY           SKY/WX    TMP DP  RH WIND       PRES   REMARKS
SANTA ROSA     CLEAR     62  51  67 S3        29.84R
SAN RAFAEL     N/A       68  MM  MM MISG
NAPA           CLEAR     61  56  83 S5        29.86R
CONCORD        CLEAR     71  50  47 NW5       29.83R
OAKLAND CITY   N/A       61  MM  MM MISG
OAKLAND        CLEAR     60  54  80 NW7       29.88S
SAN FRAN CITY  N/A       57  MM  78 MISG
SAN FRAN ARPT  CLEAR     58  51  78 W14       29.88S
LIVERMORE      CLEAR     73  48  41 W3        29.84F
HAYWARD        CLEAR     61  50  67 NW3       29.88S
REDWOOD CITY   N/A       64  MM  67 MISG
MOFFETT ARPT   CLEAR     64  55  72 N5        29.89S
SAN JOSE ARPT  CLEAR     65  56  72 NW7       29.88S
$$
CAZ034-037-514>518-240700-
CENTRAL COAST

CITY           SKY/WX    TMP DP  RH WIND       PRES   REMARKS
WATSONVILLE    CLEAR     56  52  86 CALM      29.89F
SALINAS        CLEAR     58  52  80 NW10      29.88F
MONTEREY       CLEAR     56  51  84 S6        29.91F
SAN LUIS OBISP CLEAR     60  52  74 CALM      29.84S
SANTA MARIA    PTCLDY    55  51  86 W3        29.85R
$$
CAZ015-016-240700-
NORTHERN SACRAMENTO VALLEY

CITY           SKY/WX    TMP DP  RH WIND       PRES   REMARKS
REDDING        CLEAR     87  45  23 N9        29.82R
RED BLUFF      CLEAR     82  46  28 E6        29.81R
OROVILLE       CLEAR     85  53  33 E8        29.81R
$$
CAZ016>018-240700-
SOUTHERN SACRAMENTO VALLEY

CITY           SKY/WX    TMP DP  RH WIND       PRES   REMARKS
AUBURN         CLEAR     72  34  25 CALM      29.91S
BEALE AFB      CLEAR     78  41  26 E6        29.77S
LINCOLN        FAIR      68  48  49 E7        29.79S
MARYSVILLE     CLEAR     78  59  51 E6        29.78S
SAC INTL ARPT  CLEAR     78  54  43 S7        29.78S
MATHER AIRPORT NOT AVBL
DOWNTOWN SAC   N/A       79  MM  MM MISG
SAC EXEC ARPT  CLEAR     75  51  43 S3        29.79S
VACAVILLE      CLEAR     75  49  39 CALM      29.80S
TRAVIS AFB     CLEAR     70  53  53 SW16      29.77F
$$
CAZ019>021-240700-
SAN JOAQUIN VALLEY

CITY           SKY/WX    TMP DP  RH WIND       PRES   REMARKS
STOCKTON       CLEAR     79  45  29 W9        29.79F
MODESTO        CLEAR     81  49  32 CALM      29.79S
MERCED         CLEAR     76  53  44 N3        29.80S
FRESNO         CLEAR     85  50  29 CALM      29.82R
HANFORD        CLEAR     74  61  63 CALM      29.82S
BAKERSFIELD    CLEAR     87  41  19 E6        29.83S
$$
CAZ011-012-071-240700-
NORTHERN MOUNTAINS

CITY           SKY/WX    TMP DP  RH WIND       PRES   REMARKS
YREKA          CLEAR     72  42  34 N13       30.07S
MOUNT SHASTA   CLEAR     71  37  28 VRB5      30.10R
ALTURAS        CLEAR     68  32  26 CALM      30.13R
$$
CAZ011-012-071-240700-
SIERRA NEVADA MTNS

CITY           SKY/WX    TMP DP  RH WIND       PRES   REMARKS
BLUE CANYON    CLEAR     72  35  25 VRB5      30.17F
TRUCKEE        CLEAR     52  32  46 S5        30.23S
TAHOE VLY ARPT CLEAR     54  33  45 S3        30.24S
MAMMOTH LAKES    N/A     67  25  20 NW10      30.30R
$$




USA.gov is the U.S. government's official web portal to all federal, state and local government web resources and services.